This is the latest recevied weather packets stored in our database for station/object F4FEB-13. If no packets are shown the sender has not sent any weather packets the latest 10 day(s).
| Time | Temp. | Humidity | Pressure | Rain* | Wind** | Luminosity | Snow |
|---|---|---|---|---|---|---|---|
| 1777646371 | 21.67° C | 44% | 1021.9 hPa | 0 mm | - | - | - |
| 1777646071 | 21.67° C | 41% | 1021.9 hPa | 0 mm | - | - | - |
| 1777645771 | 21.67° C | 41% | 1022 hPa | 0 mm | - | - | - |
| 1777645471 | 21.67° C | 46% | 1022 hPa | 0 mm | - | - | - |
| 1777645171 | 21.11° C | 44% | 1022 hPa | 0 mm | - | - | - |
| 1777644874 | 21.11° C | 43% | 1022.1 hPa | 0 mm | - | - | - |
| 1777644871 | 21.11° C | 43% | 1022.1 hPa | 0 mm | - | - | - |
| 1777644571 | 21.11° C | 44% | 1022.1 hPa | 0 mm | - | - | - |
| 1777643971 | 21.67° C | 42% | 1022.1 hPa | 0 mm | - | - | - |
| 1777643371 | 21.11° C | 42% | 1022.2 hPa | 0 mm | - | - | - |
| 1777642771 | 21.11° C | 47% | 1022.3 hPa | 0 mm | - | - | - |
| 1777642471 | 20.56° C | 44% | 1022.5 hPa | 0 mm | - | - | - |
| 1777642171 | 20.56° C | 45% | 1022.5 hPa | 0 mm | - | - | - |
| 1777641871 | 20.56° C | 43% | 1022.6 hPa | 0 mm | - | - | - |
| 1777640971 | 21.11° C | 43% | 1022.7 hPa | 0 mm | - | - | - |
| 1777639771 | 20.56° C | 43% | 1022.9 hPa | 0 mm | - | - | - |
| 1777638271 | 20.56° C | 45% | 1023 hPa | 0 mm | - | - | - |
| 1777637971 | 20.56° C | 45% | 1023.1 hPa | 0 mm | - | - | - |
| 1777637671 | 20° C | 43% | 1023.2 hPa | 0 mm | - | - | - |
| 1777637071 | 20.56° C | 42% | 1023.2 hPa | 0 mm | - | - | - |
| 1777636771 | 20.56° C | 43% | 1023.2 hPa | 0 mm | - | - | - |
| 1777636471 | 20° C | 43% | 1023.3 hPa | 0 mm | - | - | - |
| 1777636171 | 20.56° C | 44% | 1023.3 hPa | 0 mm | - | - | - |
| 1777635871 | 20° C | 43% | 1023.4 hPa | 0 mm | - | - | - |
| 1777635571 | 19.44° C | 41% | 1023.3 hPa | 0 mm | - | - | - |
* Rain latest hour (hover to see other rain measurements)
** Current wind speed in m/s (hover to see current wind gust speed)